• In India
  • List of Countries
  • For 7 days
  • Water Temperature
  • Satellite Maps
  • Weather Map
  • Weather Widgets
  • user-avatar
    Login

    Hourly Weather Kopiec

    Today, 21 May, Monday

    Time Temperature Precipitation Wind Pressure Humidity
    00:00 +12°C° 0 mm 2 mps 756 mmHg 80%
    01:00 +10°C° 0 mm 2 mps 755 mmHg 83%
    02:00 +9°C° 0 mm 2 mps 755 mmHg 84%
    03:00 +9°C° 0 mm 2 mps 755 mmHg 85%
    04:00 +9°C° 0 mm 2 mps 755 mmHg 86%
    05:00 +12°C° 0 mm 2 mps 755 mmHg 80%
    06:00 +13°C° 0 mm 3 mps 755 mmHg 74%
    07:00 +16°C° 0 mm 3 mps 755 mmHg 66%
    08:00 +17°C° 0 mm 3 mps 755 mmHg 60%
    09:00 +18°C° 0 mm 4 mps 755 mmHg 54%
    10:00 +20°C° 0 mm 4 mps 755 mmHg 48%
    11:00 +20°C° 0 mm 4 mps 754 mmHg 48%
    12:00 +20°C° 0 mm 4 mps 754 mmHg 47%
    13:00 +20°C° 0 mm 4 mps 753 mmHg 47%
    14:00 +20°C° 0 mm 3 mps 753 mmHg 49%
    15:00 +20°C° 0 mm 3 mps 753 mmHg 51%
    16:00 +19°C° 0 mm 3 mps 753 mmHg 54%
    17:00 +18°C° 0 mm 3 mps 753 mmHg 59%
    18:00 +17°C° 0 mm 3 mps 752 mmHg 65%
    19:00 +14°C° 0 mm 3 mps 752 mmHg 70%
    20:00 +13°C° 0 mm 3 mps 752 mmHg 72%
    21:00 +12°C° 0 mm 3 mps 752 mmHg 73%
    22:00 +11°C° 0 mm 3 mps 752 mmHg 75%
    23:00 +11°C° 0 mm 3 mps 752 mmHg 75%

    Tomorrow, 22 May, Tuesday

    Time Temperature Precipitation Wind Pressure Humidity
    00:00 +11°C° 0 mm 3 mps 752 mmHg 76%
    01:00 +10°C° 0 mm 3 mps 751 mmHg 76%
    02:00 +10°C° 0 mm 3 mps 751 mmHg 78%
    03:00 +10°C° 0 mm 3 mps 751 mmHg 80%
    04:00 +9°C° 0 mm 3 mps 751 mmHg 82%
    05:00 +11°C° 0 mm 3 mps 751 mmHg 79%
    06:00 +13°C° 0 mm 3 mps 751 mmHg 76%
    07:00 +15°C° 0 mm 4 mps 751 mmHg 73%
    08:00 +17°C° 0 mm 3 mps 750 mmHg 69%
    09:00 +19°C° 0 mm 3 mps 750 mmHg 64%
    10:00 +21°C° 0 mm 3 mps 750 mmHg 60%
    11:00 +22°C° 0.1 mm 3 mps 750 mmHg 57%
    12:00 +24°C° 0.1 mm 2 mps 750 mmHg 54%
    13:00 +25°C° 0.1 mm 2 mps 750 mmHg 51%
    14:00 +25°C° 0.1 mm 2 mps 749 mmHg 51%
    15:00 +25°C° 0.1 mm 2 mps 749 mmHg 50%
    16:00 +25°C° 0.1 mm 2 mps 749 mmHg 50%
    17:00 +23°C° 0.1 mm 2 mps 749 mmHg 57%
    18:00 +21°C° 0.1 mm 2 mps 749 mmHg 65%
    19:00 +20°C° 0.1 mm 1 mps 749 mmHg 72%
    20:00 +19°C° 0 mm 1 mps 750 mmHg 76%
    21:00 +17°C° 0 mm 2 mps 750 mmHg 81%
    22:00 +16°C° 0 mm 2 mps 750 mmHg 85%
    23:00 +16°C° 0 mm 2 mps 750 mmHg 87%

    Day after tomorrow, 23 May, Wednesday

    Time Temperature Precipitation Wind Pressure Humidity
    00:00 +16°C° 0 mm 1 mps 751 mmHg 89%
    01:00 +15°C° 0 mm 1 mps 751 mmHg 91%
    02:00 +15°C° 0 mm 1 mps 751 mmHg 92%
    03:00 +15°C° 0 mm 1 mps 751 mmHg 92%
    04:00 +15°C° 0 mm 1 mps 751 mmHg 93%
    05:00 +16°C° 0 mm 1 mps 751 mmHg 89%
    06:00 +18°C° 0 mm 1 mps 752 mmHg 85%
    07:00 +20°C° 0 mm 1 mps 752 mmHg 81%
    08:00 +21°C° 0.1 mm 1 mps 752 mmHg 77%
    09:00 +22°C° 0.1 mm 1 mps 752 mmHg 74%
    10:00 +23°C° 0.1 mm 1 mps 752 mmHg 70%
    11:00 +24°C° 0.4 mm 2 mps 752 mmHg 67%
    12:00 +25°C° 0.4 mm 2 mps 752 mmHg 64%
    13:00 +25°C° 0.4 mm 2 mps 752 mmHg 60%
    14:00 +25°C° 1.2 mm 2 mps 752 mmHg 66%
    15:00 +24°C° 1.2 mm 3 mps 752 mmHg 72%
    16:00 +22°C° 1.2 mm 3 mps 752 mmHg 78%
    17:00 +21°C° 0.8 mm 3 mps 752 mmHg 82%
    18:00 +20°C° 0.8 mm 3 mps 752 mmHg 85%
    19:00 +19°C° 0.8 mm 3 mps 752 mmHg 89%
    20:00 +18°C° 0.4 mm 3 mps 752 mmHg 91%
    21:00 +18°C° 0.4 mm 3 mps 753 mmHg 92%
    22:00 +17°C° 0.4 mm 3 mps 753 mmHg 93%
    23:00 +17°C° 0.6 mm 3 mps 753 mmHg 93%

    24 May, Thursday

    Time Temperature Precipitation Wind Pressure Humidity
    00:00 +17°C° 0.6 mm 3 mps 753 mmHg 94%
    01:00 +17°C° 0.6 mm 3 mps 753 mmHg 94%
    02:00 +16°C° 0.6 mm 3 mps 753 mmHg 94%
    03:00 +16°C° 0.6 mm 3 mps 753 mmHg 94%
    04:00 +16°C° 0.6 mm 3 mps 753 mmHg 94%
    05:00 +16°C° 0.6 mm 3 mps 753 mmHg 92%
    06:00 +17°C° 0.6 mm 3 mps 753 mmHg 91%
    07:00 +17°C° 0.6 mm 4 mps 754 mmHg 89%
    08:00 +18°C° 0.4 mm 4 mps 754 mmHg 86%
    09:00 +18°C° 0.4 mm 4 mps 754 mmHg 84%
    10:00 +19°C° 0.4 mm 4 mps 754 mmHg 81%
    11:00 +20°C° 0.4 mm 4 mps 754 mmHg 79%
    12:00 +20°C° 0.4 mm 4 mps 754 mmHg 78%
    13:00 +21°C° 0.4 mm 4 mps 754 mmHg 76%
    14:00 +21°C° 0.1 mm 4 mps 754 mmHg 74%
    15:00 +21°C° 0.1 mm 4 mps 753 mmHg 72%
    16:00 +22°C° 0.1 mm 4 mps 753 mmHg 70%
    17:00 +21°C° 0 mm 4 mps 753 mmHg 74%
    18:00 +20°C° 0 mm 3 mps 753 mmHg 77%
    19:00 +19°C° 0 mm 3 mps 753 mmHg 81%
    20:00 +18°C° 0 mm 3 mps 754 mmHg 82%
    21:00 +18°C° 0 mm 3 mps 754 mmHg 82%
    22:00 +17°C° 0 mm 3 mps 754 mmHg 83%
    23:00 +17°C° 0 mm 3 mps 754 mmHg 83%

    25 May, Friday

    Time Temperature Precipitation Wind Pressure Humidity
    00:00 +17°C° 0 mm 3 mps 754 mmHg 84%
    01:00 +17°C° 0 mm 3 mps 754 mmHg 84%
    02:00 +16°C° 0 mm 3 mps 754 mmHg 86%
    03:00 +14°C° 0 mm 3 mps 754 mmHg 88%
    04:00 +14°C° 0 mm 3 mps 755 mmHg 90%
    05:00 +16°C° 0 mm 3 mps 755 mmHg 85%
    06:00 +18°C° 0 mm 4 mps 755 mmHg 80%
    07:00 +19°C° 0 mm 4 mps 755 mmHg 75%
    08:00 +21°C° 0 mm 5 mps 755 mmHg 69%
    09:00 +22°C° 0 mm 5 mps 756 mmHg 62%
    10:00 +23°C° 0 mm 5 mps 756 mmHg 56%
    11:00 +25°C° 0 mm 5 mps 756 mmHg 54%
    12:00 +24°C° 0 mm 6 mps 755 mmHg 53%
    13:00 +26°C° 0 mm 6 mps 755 mmHg 51%
    14:00 +26°C° 0 mm 5 mps 755 mmHg 53%
    15:00 +25°C° 0 mm 5 mps 755 mmHg 54%
    16:00 +25°C° 0 mm 5 mps 755 mmHg 55%
    17:00 +23°C° 0 mm 5 mps 755 mmHg 62%
    18:00 +21°C° 0 mm 4 mps 755 mmHg 68%
    19:00 +20°C° 0 mm 3 mps 755 mmHg 75%
    20:00 +19°C° 0 mm 4 mps 756 mmHg 77%
    21:00 +18°C° 0 mm 4 mps 756 mmHg 79%
    22:00 +17°C° 0 mm 4 mps 756 mmHg 81%
    23:00 +15°C° 0 mm 4 mps 756 mmHg 80%

    26 May, Saturday

    Time Temperature Precipitation Wind Pressure Humidity
    00:00 +15°C° 0 mm 4 mps 756 mmHg 80%
    01:00 +14°C° 0 mm 4 mps 757 mmHg 79%
    02:00 +14°C° 0 mm 4 mps 757 mmHg 82%
    03:00 +13°C° 0 mm 4 mps 757 mmHg 85%
    04:00 +13°C° 0 mm 3 mps 757 mmHg 88%
    05:00 +14°C° 0 mm 4 mps 757 mmHg 84%
    06:00 +15°C° 0 mm 4 mps 758 mmHg 79%
    07:00 +17°C° 0 mm 5 mps 758 mmHg 74%
    08:00 +19°C° 0 mm 5 mps 758 mmHg 69%
    09:00 +20°C° 0 mm 5 mps 758 mmHg 64%
    10:00 +21°C° 0 mm 6 mps 758 mmHg 59%
    11:00 +21°C° 0 mm 6 mps 758 mmHg 59%
    12:00 +21°C° 0 mm 6 mps 758 mmHg 58%
    13:00 +22°C° 0 mm 6 mps 757 mmHg 58%
    14:00 +22°C° 0 mm 6 mps 757 mmHg 59%
    15:00 +22°C° 0 mm 6 mps 757 mmHg 60%
    16:00 +21°C° 0 mm 6 mps 757 mmHg 61%
    17:00 +20°C° 0 mm 5 mps 757 mmHg 66%
    18:00 +19°C° 0 mm 4 mps 757 mmHg 70%
    19:00 +18°C° 0 mm 4 mps 757 mmHg 75%
    20:00 +17°C° 0 mm 4 mps 757 mmHg 77%
    21:00 +15°C° 0 mm 4 mps 757 mmHg 79%
    22:00 +14°C° 0 mm 4 mps 757 mmHg 81%
    23:00 +14°C° 0 mm 4 mps 757 mmHg 81%
    Show more